Regional Weather Roundup
Issued by NWS Grand Forks, ND

Home | Current Version | Previous Version | Graphics & Text | Print | Product List | Glossary On
Versions: 1 2 3 4 5 6 7 8 9 10 11 12 13 14 15 16 17 18 19 20 21 22 23 24 25 26 27 28 29 30 31 32 33 34 35 36 37 38 39 40 41 42 43 44 45 46 47 48 49 50
264
ASUS43 KFGF 032331
RWRFGF
PRAIRIE TO PINES  WEATHER ROUNDUP
NATIONAL WEATHER SERVICE EASTERN NORTH DAKOTA/GRAND FORKS ND
500 PM CST SAT DEC 03 2016

 **SATELLITE DATA USED TO AUGMENT SKY COVER AT AUTOMATED STATIONS**
 *****  WEATHER ACROSS EASTERN NORTH DAKOTA  *****

CITY           SKY/WX    TMP DP  RH WIND       PRES   REMARKS
GRAND FORKS    CLOUDY    31  24  75 SE17      30.02F WCI  19
GRAND FRKS AFB CLOUDY    30  25  80 S17G23    30.01F WCI  19
GRAND FRKS NWS   N/A     30 N/A N/A SE15        N/A  WCI  19
DEVILS LAKE    CLOUDY    31  28  89 S17       29.92R WCI  19
FARGO          FLURRIES  33  27  78 SE18G26   30.04F WCI  22
WAHPETON ARPT  CLOUDY    32  28  86 SE13      30.06F WCI  22
$$

 ***** WEATHER ACROSS CENTRAL AND WESTERN NORTH DAKOTA  *****

CITY           SKY/WX    TMP DP  RH WIND       PRES   REMARKS
BISMARCK       CLOUDY    25  23  92 S3        29.87S
MINOT          CLOUDY    28  23  81 S12       29.79S WCI  18
JAMESTOWN      FLURRIES  32  30  92 S13       29.93S WCI  22
MINOT AFB      MIX PCPN  27  23  86 S14       29.79S FOG     WCI  15
GARRISON         N/A     26  23  88 S10       29.81S WCI  16
WILLISTON      LGT SNOW  32  30  92 SW8       29.75S FOG     WCI  25
DICKINSON      CLOUDY    31  26  82 SW13      29.77S WCI  21
HETTINGER      CLOUDY    32  26  78 SW6       29.83S
$$

 *****  OTHER AIRPORT OBSERVATIONS IN OUR AREA  *****

CITY           SKY/WX    TMP DP  RH WIND       PRES   REMARKS
WALHALLA         N/A     28  28 100 SE17G23   29.97F WCI  16
GRAFTON AIRPOR CLOUDY    30  27  86 SE16G25   30.03F WCI  19
VALLEY CITY AR LGT SNOW  30  30 100 SE12      29.98F WCI  21
CANDO          CLOUDY    30  30 100 SE17      29.90F WCI  18
CAVALIER APRT    N/A     28  25  86 SE14G20   30.00S WCI  17
GWINNER          N/A     32  32 100 SE17      29.99S WCI  21
SHEYENNE NWR     N/A     31  28  90 SE14      29.95S WCI  21
ROLLA          CLOUDY    27  27 100 S14G23    29.85F WCI  15
 ***** THE ABOVE OBSERVATIONS ARE NON NWS ARE NOT QUALITY
       CONTROLLED AND MAY MIS-REPORT RAIN FOR SNOW...
$$

  *****  WEATHER ACROSS NORTHERN MINNESOTA  *****

CITY           SKY/WX    TMP DP  RH WIND       PRES   REMARKS
FLAG ISLAND    CLOUDY    27  23  86 S20       30.08F WCI  13
WARROAD        CLOUDY    27  21  80 SE12      30.09S WCI  16
ROSEAU         CLOUDY    27  21  80 SE12G18   30.07F WCI  16
HALLOCK        CLEAR     27  23  86 SE15      30.02F WCI  15
THF RVR FALLS  CLEAR     25  21  85 SE13      30.07S WCI  14
BAUDETTE       CLOUDY    25  19  78 SE8       30.10F WCI  16
WASKISH        CLOUDY    25  21  86 SE8       30.12S WCI  16
CROOKSTON      MOCLDY    28  25  86 S15       30.06S WCI  17
STEPHEN NDAWN    N/A     27  23  86 SE12        N/A  WCI  16
GREENBUSH NDAW   N/A     25  21  86 SE9         N/A  WCI  15
$$
  *****  WEATHER ACROSS CENTRAL AND WEST MINNESOTA  *****

CITY           SKY/WX    TMP DP  RH WIND       PRES   REMARKS
FOSSTON        CLOUDY    25  19  80 SE9G17    30.08S WCI  15
BEMIDJI        CLEAR     24  19  81 SE9       30.10F WCI  14
PARK RAPIDS    MOCLDY    26  17  68 SE12      30.12S WCI  16
ELBOW LAKE     FLURRIES  30  28  94 E15       30.09F WCI  19
WADENA         CLOUDY    27  21  80 SE9       30.11S WCI  17
DETROIT LAKES  CLOUDY    30  27  86 SE15      30.07F WCI  19
MOORHEAD       LGT RAIN  30  28  93 SE21      30.06F WCI  17
FERGUS FALLS   LGT SNOW  30  28  93 SE15G23   30.12S WCI  19
MORRIS MN      MOCLDY    32  28  86 SE14      30.08F WCI  22
STAPLES        CLOUDY    27  19  74 SE6       30.13F WCI  20
$$
  *****  WEATHER ELSEWHERE ACROSS MINNESOTA  *****

CITY           SKY/WX    TMP DP  RH WIND       PRES   REMARKS
DULUTH         CLOUDY    29  20  69 S9        30.18R WCI  20
INTRNTL FALLS  CLOUDY    26  19  74 S5        30.14F WCI  20
ELY            CLOUDY    27  25  93 CALM      30.17S
CLOQUET        CLOUDY    28  19  69 S5        30.19R WCI  23
WHEATON        LGT SNOW N/A N/A N/A SE17      30.07F
BRAINERD       MOCLDY    26  20  77 SE7       30.17R WCI  18
HIBBING        CLOUDY    26  18  71 S6        30.16S WCI  19
ALEXANDRIA     CLOUDY    30  27  88 SE13      30.12S FOG     WCI  20
SAINT CLOUD    CLOUDY    30  22  72 SE9       30.18F WCI  22
MINNEAPOLIS    CLOUDY    31  21  66 SE8       30.23S WCI  23
$$

  *****  WEATHER ACROSS SOUTH DAKOTA  *****

CITY           SKY/WX    TMP DP  RH WIND       PRES   REMARKS
SIOUX FALLS    FLURRIES  35  34  96 S15G22    30.08F
BROOKINGS      LGT RAIN  33  31  92 S17       30.04F WCI  22
WATERTOWN      CLOUDY    32  31  96 S14       30.00F WCI  22
HURON          CLEAR     34  32  92 S15G24    29.98F WCI  24
SISSETON         N/A     33  31  92 S14       30.02F WCI  23
ABERDEEN       CLOUDY    34  32  92 S18G26    29.97F WCI  23
MITCHELL       CLEAR     35  33  92 S17       30.00F WCI  25
PIERRE         CLEAR     35  26  69 W5        29.90R
MOBRIDGE       CLEAR     32  26  78 SW5       29.85F
RAPID CITY     CLOUDY    39  22  50 CALM      29.90R
$$

  *****  SOME WEATHER IN NEARBY STATES *****

CITY           SKY/WX    TMP DP  RH WIND       PRES   REMARKS
GLASGOW MT     PTCLDY    37  32  82 W14G23    29.77R
GREAT FALLS MT PTCLDY    35  23  61 W12       29.92R
CHEYENNE WY    CLOUDY    32  11  41 NW15G26   29.95R WCI  22
SCOTTSBLUFF NE MOCLDY    40  12  32 W21G28    29.96R
OMAHA NE       LGT SNOW  33  29  85 SE6       30.17F VSB 3/4
DES MOINES IA  LGT RAIN  40  32  73 E5        30.22F
DAVENPORT IA   PTCLDY    35  26  69 CALM      30.28F
CHICAGO IL     MOCLDY    32  23  69 CALM      30.30F
EAU CLAIRE WI  CLOUDY    30  21  69 S8        30.25S WCI  22
LA CROSSE WI   CLOUDY    33  23  66 S3        30.27F
$$

  *****  SOME NATIONAL WEATHER *****

CITY           SKY/WX    TMP DP  RH WIND       PRES   REMARKS
LA GUARDIA NY  PTCLDY    46  30  53 NW16      30.10R
RALEIGH NC     CLOUDY    48  28  46 N3        30.24S
ATLANTA GA     LGT RAIN  51  40  65 N9        30.23R
NEW ORLEANS LA CLOUDY    62  56  80 E14G25    29.99F
OKLAHOMA CITY  LGT RAIN  44  43  96 E8        30.05S FOG
ALBUQUERQUE NM PTCLDY    48  27  44 NW6       29.97F
SALT LAKE CITY MOCLDY    35  20  54 S7        30.26S
LOS ANGELES CA SUNNY     64  24  21 W8        30.06S
BOISE ID       MOCLDY    45  29  53 CALM      30.22F
SEATTLE WA     CLOUDY    47  41  80 SW15G22   30.25F
$$

*** WEATHER ACROSS MANITOBA...SASKATCHEWAN AND ONTARIO ***
                ***ONTARIO***

CITY           SKY/WX    TMP DP  RH WIND       PRES   REMARKS
GERALDTON      CLOUDY    21  19  93 E3        30.24S
THUNDER BAY    MOCLDY    30  23  74 SE5       30.24F
SIOUX LOOKOUT  FRZ DRZL  23  21  93 S6        30.15F WCI  16
TORONTO        CLOUDY    39  28  65 NW15      30.22R
BIG TROUT LK   CLOUDY    21  19  93 S14       30.18S WCI   8
PICKLE LAKE    FRZ DRZL  21  19  93 SE8       30.17S WCI  12
DRYDEN         CLOUDY    23  21  93 S12       30.13S WCI  12
KENORA         FLURRIES  25  21  86 SE12      30.09S WCI  14
$$
                *** MANITOBA***

CITY           SKY/WX    TMP DP  RH WIND       PRES   REMARKS
BRANDON        CLOUDY    30  27  86 S16G24    29.83F WCI  19
DAUPHIN        CLOUDY    32  27  80 S13G18    29.81S WCI  22
ISLAND LAKE    FLURRIES  14  12  92 SE14G21   30.09F WCI  -1
PILOT MOUND      N/A     28  27  93 S24         N/A  WCI  14
THE PAS        FLURRIES  28  25  86 SE15      29.77F WCI  17
THOMPSON       CLOUDY    19  16  86 E3        29.96F
WINNIPEG       CLOUDY    27  23  86 S22G30    30.00F WCI  12
LYNN LAKE      CLOUDY    23  23 100 SE13      29.81S WCI  11
CHURCHILL      MOCLDY    14  12  92 S7        30.08S WCI   4
GILLAM         LGT SNOW   9   5  85 S5        30.10S WCI   0
$$
                ***SASKATCHEWAN***

CITY           SKY/WX    TMP DP  RH WIND       PRES   REMARKS
ESTEVAN        LGT SNOW  30  30 100 S13       29.71F VSB 1   WCI  20
KINDERSLEY     MOCLDY    30  28  93 W6        29.73S WCI  24
LLOYDMINSTER   MOCLDY    25  25 100 W3        29.69R
PRINCE ALBERT  FLURRIES  28  25  86 E3        29.70F
REGINA         CLOUDY    27  25  93 W15       29.67R WCI  15
YORKTON        FLURRIES  25  23  93 SE14      29.69S WCI  13
N. BATTLEFORD  CLOUDY    25  25 100 W6        29.74R WCI  18
LA RONGE       FLURRIES  28  25  86 S6        29.71F WCI  22
SASKATOON      CLOUDY    27  23  86 NW9       29.73R WCI  17
SWIFT CURRENT  LGT SNOW  28  28 100 NW18G24   29.72R VSB 1   WCI  16
$$
NOTE: THESE ARE AUTOMATED STATIONS WITH LIMITED QUALITY CONTROL
      "FAIR" INDICATES FEW OR NO CLOUDS BELOW 12,000 FEET WITH NO
      SIGNIFICANT WEATHER AND/OR OBSTRUCTIONS TO VISIBILITY.
      SKY/WX - SKY CONDITION AND SIGNIFICANT WEATHER.
      TMP - AIR TEMPERATURE.    DP   - DEWPOINT TEMPERATURE.
      RH  - RELATIVE HUMIDITY.  PRES - PRESSURE.
      HX  - HEAT INDEX.         WCI  - WIND CHILL INDEX.
$




USA.gov is the U.S. government's official web portal to all federal, state and local government web resources and services.